トータス彗星

C/2017 M5 ( TOTAS )

English version
Home page
Updated on February 13, 2018

---------------------------------------------------------------------

・ プロフィール

発見日 2017年6月23日
発見光度 18.6等
発見者 Teide Observatory Tenerife Asteroid Survey (TOTAS)

・ 写真集

・ 軌道要素

Epoch 2018 June 11.0 TT = JDT 2458280.5
T 2018 June 2.63531 TT                                  MPCW
q   5.9904639            (2000.0)            P               Q
z  -0.0005603      Peri.   92.61870     +0.60521324     +0.77942218
 +/-0.0000426      Node   216.26790     -0.79470276     +0.57966164
e   1.0033562      Incl.   15.88550     -0.04652369     +0.23768352
From 120 observations 2017 June 23-Oct. 26, mean residual 0".5.

・ 光度変化

        m1 = 6.5 + 5 logΔ + 10.0 log r

---------------------------------------------------------------------

軌道要素はM.P.E.C. 2018-B155に掲載されたものです。
光度グラフはComet for Windowsで作成したものです。

---------------------------------------------------------------------

Copyright(C) Seiichi Yoshida (comet@aerith.net). All rights reserved.